Zurück zum Katalog

COSMOS 1691 DEB

AktivPO
NORAD 16267·DEBRIS·🇷🇺 Russia

Gestartet Oct 9, 1985 von Plesetsk Cosmodrome

Loading…

Nächste Überflüge (nächste 24 Stunden)

TLE

AktuellSource: Space-Track

Epoche: Sep 13, 2026, 13:53 UTC

1 16267U 85094L   26256.57866727  .00001527  00000-0  36638-2 0  9990
2 16267  82.6281  91.0651 0078118 255.6491 164.2808 13.20823939556061

Verfolge COSMOS 1691 DEB in Echtzeit mit AllMySat

Download on the App Store